GFSWCAN_850_rhum_000.txt.gz
RH
89 99 92 77 89 81 79 80 83 87 89 96 96 91 88 88 92 92 80 84 98 98 84 82 74 74 79 75 88 79 82 90 99 98 100 99 100 82 91 60 76 81 99 100 100 100 91 41 43 66 51 57 53 57
93 99 92 91 84 92 83 81 79 78 78 84 99 95 88 90 93 95 95 89 95 100 97 89 86 75 77 76 74 81 70 67 82 96 100 100 100 100 100 94 62 94 81 76 63 64 39 44 51 56 56 57 59 63
81 91 99 99 100 93 80 81 81 74 78 82 81 88 95 97 98 97 91 93 100 100 99 100 91 57 77 69 70 91 91 83 79 72 84 100 100 100 99 91 82 67 62 82 82 62 51 51 56 58 60 63 63 73
82 80 86 90 99 96 94 99 91 85 79 80 83 87 82 91 99 100 97 95 100 100 100 95 83 75 70 68 74 79 86 87 89 91 98 100 99 94 98 86 90 74 81 92 91 78 61 60 56 57 64 66 71 76
90 94 83 79 84 88 95 98 100 97 88 85 81 91 87 93 100 100 100 93 100 100 100 91 84 79 76 70 73 81 82 90 99 100 100 99 91 96 91 88 94 91 87 93 88 58 63 68 60 57 62 70 77 91
87 93 95 99 97 84 90 86 85 98 100 100 97 92 89 93 99 100 100 100 97 89 100 100 98 95 83 73 69 67 91 100 100 96 95 98 95 94 100 97 69 64 62 59 63 61 62 62 63 64 74 80 82 83
97 99 99 99 100 98 96 99 100 99 100 100 100 100 100 100 100 100 94 93 91 100 100 98 99 97 86 78 95 94 99 99 100 97 99 92 89 99 100 93 64 61 56 55 61 65 68 64 71 78 77 64 61 68
88 94 99 99 96 99 99 99 98 98 100 100 100 99 100 100 100 100 100 100 95 100 100 100 100 96 90 99 94 87 99 100 99 93 93 90 78 85 98 60 50 44 46 51 54 61 70 73 72 53 48 51 54 62
88 94 94 93 99 99 100 99 99 99 97 96 98 98 99 99 98 99 100 100 99 100 100 100 99 97 82 100 99 100 100 100 95 100 94 73 89 96 58 46 45 47 50 54 66 70 65 48 48 52 57 62 69 79
94 89 86 85 87 91 98 99 96 93 92 96 98 98 98 99 93 98 99 99 100 100 100 100 100 98 88 97 98 99 99 100 99 88 84 100 79 58 53 52 53 55 63 70 61 49 51 56 57 62 78 96 99 100
98 100 100 93 88 89 88 93 96 96 94 89 86 87 82 100 98 99 95 100 98 99 100 99 97 87 81 96 100 88 100 100 100 72 95 86 76 49 52 54 57 53 48 48 49 56 59 64 74 84 85 100 100 99
92 90 91 92 91 94 96 93 88 84 74 70 87 96 99 98 96 98 98 99 98 87 94 97 98 94 89 90 98 96 100 100 96 85 95 90 55 55 53 48 45 50 52 53 54 52 52 64 80 76 82 80 72 64
100 100 99 100 99 94 88 82 79 75 79 88 82 97 98 97 95 86 86 90 92 99 100 100 99 100 99 99 99 100 99 98 98 95 88 62 54 52 46 46 51 56 56 59 58 54 60 80 73 69 76 80 67 64
97 96 97 98 93 85 77 70 69 89 86 84 96 91 89 85 83 78 82 95 99 99 100 89 84 98 98 99 99 100 86 92 93 88 76 55 50 43 45 55 56 61 66 66 57 54 66 75 75 72 73 56 36 33
94 85 79 81 80 73 69 66 65 82 71 85 87 85 87 89 96 93 92 96 98 91 90 97 94 99 95 98 96 94 96 89 81 72 72 55 50 51 55 53 62 70 75 71 53 56 64 69 66 55 33 34 35 39
99 90 79 72 65 60 56 62 91 88 80 93 90 81 83 98 94 98 94 92 77 87 95 96 80 84 80 88 93 90 86 62 58 80 62 58 57 63 65 58 61 74 82 78 64 60 77 80 58 34 40 40 41 50
99 96 86 80 77 79 68 78 90 80 100 96 86 92 88 99 99 100 74 82 81 100 86 94 95 74 68 88 87 69 67 68 53 59 61 57 60 64 65 63 62 80 84 84 82 76 96 91 43 41 50 44 51 61
90 89 85 83 85 97 97 89 81 90 90 86 89 84 98 100 99 98 63 64 77 96 72 69 69 87 89 67 56 60 49 51 60 62 62 61 64 67 72 84 90 89 92 95 95 98 96 82 42 58 50 51 60 65
84 86 76 80 90 99 88 92 90 84 79 86 100 100 91 94 69 61 68 63 72 84 85 98 86 72 67 54 68 71 66 64 68 67 68 72 74 78 82 86 94 99 99 100 98 98 96 61 66 55 52 60 69 84
98 95 90 92 92 93 86 98 92 98 81 79 87 89 88 86 69 62 60 63 92 100 92 87 66 61 60 54 48 48 52 60 70 80 80 72 75 87 96 95 99 98 99 98 97 97 94 81 62 55 58 71 88 93
98 94 98 98 99 96 98 100 100 93 85 89 89 96 83 90 86 92 92 87 98 82 70 61 62 60 54 54 56 61 67 71 77 77 79 81 82 93 90 98 98 98 98 97 96 84 78 67 56 54 68 86 92 93
99 96 99 99 98 96 91 99 95 98 100 97 100 94 81 80 83 88 82 96 77 71 71 64 61 62 63 62 62 62 66 71 78 86 85 88 100 97 98 96 98 98 97 93 71 75 74 62 54 62 77 85 83 82
98 95 99 97 97 97 98 95 100 89 88 83 98 86 87 93 91 70 77 65 58 53 54 54 55 57 65 66 68 70 64 78 87 86 91 100 97 99 99 98 96 94 87 80 72 65 59 61 68 77 81 84 86 78
97 97 96 94 99 92 99 99 99 99 98 92 89 82 70 76 80 83 72 56 53 52 56 59 63 68 74 78 82 83 81 98 100 100 96 100 100 100 97 94 84 71 72 65 56 57 63 70 78 91 94 89 86 83
98 98 97 93 99 97 89 81 83 92 94 83 85 72 73 90 80 67 65 52 53 58 62 58 73 80 95 95 100 99 89 100 98 94 90 98 98 98 92 76 72 58 52 54 57 63 72 84 85 66 73 79 98 99
94 88 92 79 87 91 80 88 93 86 72 75 81 68 93 82 80 77 52 46 45 43 48 62 69 76 90 98 100 96 94 97 98 99 98 98 97 97 90 64 56 61 61 62 65 61 69 70 62 64 74 75 84 85
93 86 91 88 83 87 88 94 81 78 85 84 77 90 89 91 82 61 48 36 38 40 53 65 70 77 84 83 88 91 96 97 99 99 80 67 79 91 90 84 77 76 66 64 61 63 61 60 60 70 79 92 97 93
84 79 86 82 98 86 74 81 82 81 68 65 80 88 92 84 64 50 42 41 42 47 58 65 70 76 80 84 87 84 91 97 98 84 77 86 90 90 89 88 90 90 80 78 79 79 75 81 87 89 91 95 99 99
84 79 83 98 95 96 88 74 68 60 54 63 73 74 67 59 49 48 48 48 49 59 69 69 75 75 70 74 88 92 95 99 97 86 83 88 90 89 87 88 93 96 88 95 96 95 92 88 97 100 100 100 96 82
85 81 82 80 85 81 71 78 78 64 62 62 62 72 77 68 59 52 52 56 64 71 76 76 78 79 78 94 100 98 98 99 100 97 100 98 98 94 95 97 97 94 98 100 100 99 100 100 100 100 94 80 77 79
86 99 97 94 88 79 77 74 71 74 73 72 81 94 82 71 64 62 69 77 80 82 79 80 85 96 99 99 98 100 99 96 97 98 96 96 97 98 97 96 94 100 100 100 100 100 100 100 99 92 80 80 84 88
99 96 91 93 87 82 81 88 98 98 99 100 100 100 100 97 98 86 88 88 89 87 89 90 100 99 96 96 92 95 97 97 96 96 96 93 86 92 96 92 90 92 93 90 90 91 93 93 89 85 85 85 87 88
100 100 99 97 95 96 100 100 97 95 100 100 99 100 100 98 93 98 96 91 88 89 95 99 98 97 97 98 98 97 96 96 95 96 96 98 98 97 96 95 96 96 96 97 98 95 91 90 91 92 91 88 85 84

GFSWCAN_850_rhum_003.txt.gz
RH
92 91 95 99 90 86 88 95 100 99 97 95 93 86 87 88 88 84 93 80 87 92 80 79 71 66 63 67 75 63 68 80 96 100 100 96 100 68 63 49 64 70 99 100 100 100 94 33 36 73 64 56 51 56
86 92 93 80 83 94 90 85 84 84 90 96 100 94 88 91 92 90 88 80 91 95 85 85 80 74 69 63 61 66 67 57 74 89 97 100 100 100 100 92 49 72 60 70 61 61 38 40 43 47 48 50 67 75
86 89 92 92 98 87 84 87 87 82 84 86 88 90 89 97 100 100 94 90 98 100 99 95 91 60 84 79 79 82 85 74 66 66 77 100 100 86 99 89 94 76 62 73 73 54 46 45 53 57 61 71 59 66
70 76 82 92 96 94 92 81 78 91 86 84 87 87 87 84 89 100 100 92 100 100 100 92 78 66 84 89 91 89 83 80 82 85 95 100 100 91 95 80 81 71 73 80 76 59 56 63 65 52 63 62 59 67
68 69 75 80 81 84 86 88 94 88 88 88 90 86 88 90 87 96 99 99 100 100 100 93 83 69 75 83 87 89 89 86 89 99 100 97 87 92 87 88 93 75 78 88 95 72 72 62 49 48 54 66 68 64
68 73 71 70 73 80 83 84 92 91 87 86 97 96 97 95 99 100 100 99 99 100 100 100 92 89 81 71 79 92 93 90 94 94 98 94 87 88 100 93 76 68 67 71 78 74 66 52 50 54 63 63 47 45
77 73 83 88 89 77 73 76 77 82 88 98 99 100 99 100 100 100 97 91 85 100 100 97 96 98 88 91 85 81 87 96 97 97 97 93 85 97 100 94 64 58 61 55 57 56 48 55 58 60 50 43 44 46
84 90 94 92 94 98 95 92 93 98 99 100 100 100 100 100 100 100 100 100 92 100 99 100 99 97 95 97 95 94 94 97 100 95 94 88 75 90 99 64 49 43 40 36 36 44 57 59 54 43 44 44 51 57
82 86 90 98 88 98 93 95 100 98 97 98 99 99 99 100 100 100 99 99 100 100 100 100 100 100 88 98 98 98 99 100 97 100 92 66 79 93 59 44 41 38 38 52 58 56 50 46 46 43 43 47 69 87
82 86 86 88 88 92 100 100 97 96 98 95 94 95 98 99 99 99 99 100 100 100 100 100 99 99 82 99 99 99 99 100 100 86 69 93 74 53 48 44 42 52 56 53 50 48 48 50 48 48 54 69 97 93
93 94 84 83 85 85 85 96 93 94 92 95 79 90 97 91 96 98 97 100 98 100 99 98 96 90 97 99 100 98 100 100 100 59 80 84 71 44 42 50 54 50 50 49 49 49 50 50 50 58 73 79 72 71
100 99 100 100 87 83 84 94 98 97 97 84 86 94 99 97 93 99 100 98 100 84 78 91 88 84 95 97 97 99 100 100 95 79 92 84 47 48 48 47 45 47 49 48 53 55 54 52 61 83 77 51 70 76
99 98 96 92 86 86 90 93 90 80 64 74 68 95 98 94 96 84 83 92 94 97 99 99 97 99 98 99 99 100 100 100 96 98 84 63 54 42 39 39 41 41 50 51 52 61 64 58 67 84 76 74 82 73
91 91 92 97 98 96 92 86 76 64 94 68 93 91 95 94 72 61 67 99 99 99 96 95 89 84 96 99 98 100 77 83 91 77 67 47 40 40 45 50 57 53 55 55 61 70 65 54 53 77 79 76 67 33
100 100 100 100 98 93 80 66 71 86 74 91 97 84 81 74 92 100 96 99 98 95 90 89 93 87 81 90 90 82 84 84 68 55 53 43 53 55 57 59 57 57 61 67 75 81 73 63 60 79 94 51 39 44
100 100 100 97 91 82 74 69 87 93 56 77 85 90 90 94 90 99 99 98 94 100 96 96 81 82 76 76 79 78 64 44 55 62 46 42 43 49 58 61 66 53 58 74 83 87 83 82 76 91 93 43 55 45
100 100 78 80 73 67 80 98 90 54 73 97 85 91 95 97 93 96 98 93 89 100 78 75 81 68 39 60 62 46 58 66 47 49 51 46 48 52 62 68 67 68 83 93 92 98 99 98 97 98 60 53 57 49
100 91 82 76 78 93 100 98 74 91 92 81 78 82 97 98 96 99 86 96 100 79 60 66 46 54 61 48 55 56 41 42 50 55 51 44 45 57 64 71 76 83 90 94 95 96 100 98 98 86 53 62 56 57
100 84 81 86 92 93 91 84 96 85 76 76 85 90 86 91 94 90 81 86 92 78 74 74 73 65 65 48 56 54 59 64 62 55 53 54 57 65 68 73 78 90 96 91 97 99 100 98 96 74 78 67 59 80
86 78 76 86 95 95 92 98 95 87 75 71 76 76 78 80 84 89 80 74 97 94 84 81 64 55 54 49 46 47 50 53 56 61 62 61 56 60 66 72 78 85 92 99 99 99 97 98 93 84 70 60 63 82
95 90 92 92 99 99 98 96 98 93 68 67 67 72 71 82 98 100 98 95 96 80 66 58 60 60 58 59 58 58 60 61 64 67 71 74 72 76 79 82 88 97 100 99 99 98 98 97 93 82 64 62 69 80
92 96 100 99 98 91 93 90 76 85 79 77 88 81 71 75 81 87 85 85 77 66 62 59 59 59 59 58 57 58 61 63 67 70 70 72 78 84 86 89 99 100 99 98 98 97 92 90 82 67 58 63 75 77
95 93 97 91 89 93 94 93 88 83 83 75 76 74 67 72 69 80 72 62 59 56 52 51 52 54 57 57 60 64 60 75 79 82 85 89 94 98 100 98 99 100 98 98 96 87 77 76 69 58 60 68 77 80
95 97 97 98 98 94 97 96 89 81 78 82 70 66 55 56 72 82 69 59 58 54 54 53 53 54 55 62 68 69 74 84 89 93 97 100 100 100 100 99 98 97 97 98 81 76 72 60 56 63 72 80 87 96
98 97 97 92 96 93 85 82 78 75 77 71 67 61 59 80 70 61 63 53 53 55 56 56 60 60 66 70 74 82 89 97 97 98 98 99 98 96 98 98 97 94 80 77 75 64 55 55 62 72 83 85 100 100
94 95 90 70 75 79 67 67 64 64 63 62 61 54 88 67 69 67 44 43 49 55 56 45 42 53 68 74 75 81 94 100 100 100 95 98 98 98 98 98 91 67 58 57 56 56 60 66 75 83 70 69 94 99
90 74 80 71 64 68 70 81 70 62 63 58 54 62 77 80 62 43 40 43 56 48 38 40 46 60 82 88 93 94 88 84 91 97 97 96 86 80 95 96 83 80 70 80 72 64 59 60 66 65 69 96 100 100
77 60 75 81 85 68 72 64 63 64 58 46 51 62 86 69 48 39 54 67 52 47 47 47 48 54 66 68 76 76 74 87 87 94 97 90 77 81 88 95 92 89 84 82 73 69 66 64 61 61 73 94 100 100
71 62 66 69 75 80 75 68 65 53 49 49 70 70 62 56 55 59 63 69 61 59 59 54 53 66 72 72 71 73 90 100 100 100 100 98 95 88 95 94 94 92 91 94 91 84 84 79 80 86 88 90 92 92
73 74 74 70 80 75 66 67 64 61 66 72 72 76 75 72 71 76 76 76 78 70 64 67 72 82 81 86 95 99 100 100 100 100 100 99 97 98 98 98 98 97 97 97 97 95 95 96 95 97 99 99 99 92
75 84 79 77 79 74 71 70 70 75 81 92 83 94 95 90 95 92 88 82 73 68 76 88 96 98 100 100 100 100 99 100 98 97 99 98 97 97 97 98 98 96 97 97 98 98 97 97 97 97 98 99 98 86
100 92 82 84 82 83 80 95 99 98 98 99 94 95 97 99 93 99 84 80 86 97 100 91 94 100 100 100 98 97 99 99 99 98 97 98 97 96 96 96 96 96 95 93 88 84 84 93 100 100 100 100 100 100
89 88 89 89 86 90 96 100 92 89 92 89 88 90 95 92 93 100 96 91 91 91 91 94 99 100 98 97 97 97 98 98 97 96 96 97 97 97 97 97 97 95 93 95 100 100 100 99 100 100 100 100 100 94

GFSWCAN_850_rhum_006.txt.gz
RH
89 98 96 99 90 88 94 96 96 92 96 90 90 92 91 92 93 88 89 86 81 92 82 75 73 64 57 57 79 61 69 73 92 100 100 97 99 76 68 52 67 69 86 95 99 99 90 37 43 80 61 62 66 79
85 88 100 98 100 92 87 92 94 97 94 90 91 89 89 91 96 98 89 94 89 95 86 84 78 73 72 67 67 65 71 60 78 93 99 100 100 99 96 90 47 75 64 72 63 65 43 42 47 54 60 67 74 76
83 82 89 90 95 100 93 90 87 82 84 86 90 90 93 92 94 99 98 96 99 100 98 92 76 60 72 72 77 82 80 76 68 67 74 100 100 93 100 98 83 67 55 74 73 54 49 51 56 62 64 70 78 77
81 87 85 91 95 92 91 78 84 85 79 82 82 83 85 85 87 94 100 99 100 100 100 93 80 76 60 74 86 86 87 83 83 83 89 100 100 92 98 77 80 72 65 74 76 64 60 63 64 65 68 68 80 80
69 73 74 76 81 86 84 87 90 82 83 86 86 83 78 85 91 95 96 94 100 100 99 91 81 68 65 78 85 82 84 85 92 96 100 100 89 89 87 84 91 69 73 87 86 63 74 69 64 62 66 86 81 50
61 68 66 75 79 79 78 84 84 84 84 83 83 87 87 90 98 100 100 92 98 100 100 100 96 91 80 73 76 78 81 88 92 89 98 86 79 82 100 85 61 57 56 59 60 56 55 56 58 66 83 66 48 42
64 66 74 75 72 72 77 76 75 79 86 92 95 95 91 96 100 100 98 96 84 93 100 98 98 97 86 80 85 82 79 82 93 96 95 94 88 90 100 96 68 66 61 56 53 54 68 63 67 65 47 48 45 54
68 76 83 91 94 87 76 73 76 76 78 86 97 100 100 100 100 100 100 97 97 100 99 100 99 94 91 99 96 94 96 95 100 100 100 97 82 93 99 67 59 52 45 40 49 56 54 50 48 45 45 46 51 69
73 80 85 97 88 82 86 91 90 93 97 100 100 100 100 100 100 100 100 99 100 99 98 100 100 100 92 100 98 96 99 100 98 100 98 87 92 95 74 57 49 45 45 58 58 52 49 49 46 45 46 50 62 86
74 82 88 87 86 88 94 89 92 95 99 100 100 97 99 99 100 100 98 98 98 99 100 100 99 99 80 96 98 98 100 100 100 93 81 98 84 63 59 53 46 56 50 46 48 47 45 47 48 49 52 57 75 68
68 83 89 87 85 85 88 94 100 100 100 98 88 93 100 100 98 99 100 100 100 100 99 98 99 89 94 99 100 99 100 100 100 73 86 82 75 54 45 48 50 47 46 46 45 45 47 50 52 54 56 69 74 54
79 89 93 90 87 88 86 92 97 99 100 97 88 94 95 96 99 100 100 98 100 87 98 96 93 93 100 97 96 100 98 100 90 74 90 82 52 40 47 47 43 41 40 42 47 45 42 45 52 62 60 68 86 74
92 97 98 90 98 84 87 95 93 89 83 94 72 94 93 94 99 93 88 98 96 94 99 98 98 98 95 96 99 97 97 85 98 97 75 62 46 48 42 39 42 45 46 48 42 45 52 60 60 66 64 57 90 81
98 100 100 100 98 89 93 94 90 84 93 60 86 93 94 92 80 66 74 99 99 99 97 96 92 90 98 97 98 98 77 90 93 80 67 59 46 47 53 57 59 57 58 55 59 57 58 67 76 79 77 65 85 93
93 95 99 100 100 98 98 95 84 92 62 77 93 80 87 74 97 98 100 98 98 86 94 90 90 82 85 91 86 85 82 78 70 60 62 50 52 51 53 53 53 57 62 66 66 69 72 74 82 85 85 94 98 96
95 96 100 100 100 98 88 78 92 86 50 75 93 93 93 91 98 93 98 97 98 99 94 86 81 77 73 76 76 76 70 54 53 76 53 49 50 52 52 46 52 64 67 70 67 78 89 92 95 98 98 97 99 82
99 98 100 99 99 98 94 97 91 62 57 87 88 86 98 86 98 81 90 98 94 96 81 72 74 69 49 64 59 49 60 66 51 53 52 53 54 54 53 50 53 59 63 73 78 84 87 84 91 95 99 98 94 80
99 99 98 100 95 94 93 92 79 94 97 84 73 80 92 93 89 93 97 88 95 81 62 62 45 60 58 54 55 56 48 50 53 54 54 51 49 50 54 59 57 55 70 77 76 93 96 86 98 99 98 96 89 74
98 92 84 79 95 95 90 84 99 86 83 75 74 82 84 91 90 88 88 92 89 82 76 76 70 69 67 50 56 55 56 60 59 55 57 57 57 57 57 58 59 62 67 71 80 89 93 99 99 98 96 88 83 78
96 87 85 96 99 94 93 95 96 94 77 80 80 77 78 83 80 86 89 92 95 89 84 78 66 57 56 53 52 52 52 54 62 65 64 64 65 66 67 70 72 72 74 81 90 99 100 99 94 97 96 97 84 85
91 87 95 98 98 97 92 90 88 84 72 60 62 66 72 74 80 90 100 95 99 78 66 60 58 58 56 57 58 60 64 65 68 71 71 70 67 70 74 75 76 80 88 96 96 97 100 97 97 97 96 88 74 74
98 91 100 99 97 83 91 90 75 82 73 68 70 74 71 77 85 88 85 88 81 74 71 66 63 62 62 62 62 62 64 64 61 64 68 74 79 81 84 89 95 94 94 96 99 99 98 97 98 96 86 74 61 67
98 95 90 93 93 100 87 90 82 75 77 74 77 70 68 69 66 64 68 63 66 66 65 64 60 57 58 57 56 56 55 58 67 75 82 88 91 93 94 94 100 100 98 94 99 98 98 98 87 84 80 68 62 84
91 94 96 94 97 79 92 91 89 77 72 65 66 63 58 58 58 66 72 63 59 60 60 59 58 58 59 59 60 60 61 66 77 86 88 97 98 96 97 96 97 98 100 100 100 99 97 86 78 76 66 64 84 100
97 96 99 90 96 87 83 81 78 69 71 64 70 67 57 58 67 62 64 53 51 54 57 59 60 58 64 62 63 64 66 74 89 96 78 95 97 96 92 99 100 100 100 99 98 95 92 77 70 62 67 85 100 100
94 94 91 71 78 76 68 65 67 71 71 70 63 52 56 64 66 75 46 42 46 49 52 53 51 49 51 56 61 65 69 79 80 79 68 90 99 99 99 99 95 97 97 92 86 80 68 61 62 70 93 100 100 100
92 85 90 76 63 66 68 63 68 66 67 65 58 66 62 82 71 45 37 40 47 51 56 57 58 55 60 64 60 61 65 65 78 77 70 78 90 96 100 99 99 93 96 76 64 71 86 82 76 90 100 100 94 97
82 68 81 75 70 66 78 70 64 65 59 52 52 65 70 67 54 38 45 55 58 56 58 58 55 58 65 65 63 57 60 72 84 86 78 76 84 91 97 84 85 94 97 92 88 94 84 72 80 98 96 100 100 100
81 64 62 72 72 76 72 71 72 57 50 50 65 65 58 51 50 54 57 61 66 69 69 70 71 73 74 68 65 70 85 100 99 99 100 99 99 97 99 98 96 95 95 96 95 96 95 85 80 79 86 100 100 100
71 71 68 64 77 76 62 58 57 58 62 72 85 90 88 79 67 66 77 86 85 79 78 83 83 82 77 84 92 100 100 100 95 99 98 99 100 98 98 97 97 98 98 98 98 97 97 97 96 95 93 95 95 97
60 65 73 77 79 72 70 70 73 72 78 85 85 87 88 84 85 88 90 90 92 96 98 96 95 99 99 99 100 99 100 99 97 96 98 98 97 100 100 99 97 96 96 96 97 96 96 96 96 96 96 97 97 98
88 83 77 82 75 68 75 93 90 88 87 93 96 96 98 100 96 93 90 85 92 99 100 100 100 100 100 100 100 100 98 96 96 97 99 98 97 96 97 97 97 96 96 96 96 96 96 95 96 100 100 100 100 100
81 81 72 74 76 73 71 93 95 78 78 85 82 80 86 94 94 97 96 92 94 100 99 98 97 99 100 98 98 97 97 96 97 97 98 97 97 97 96 96 96 96 96 99 97 94 94 94 96 99 98 98 99 99

GFSWCAN_850_rhum_009.txt.gz
RH
100 99 97 85 91 93 87 92 93 93 92 88 85 82 82 84 79 77 78 82 86 91 76 69 70 66 69 65 90 66 70 73 99 100 100 99 96 93 81 62 65 79 90 98 98 99 94 52 49 72 62 63 58 68
99 100 100 96 92 92 88 90 95 89 91 95 93 87 86 88 90 84 79 81 91 96 84 81 73 67 69 70 75 71 66 72 78 99 98 100 100 100 97 91 54 81 72 83 83 81 54 47 51 53 57 62 69 77
98 92 99 97 97 99 92 86 89 94 94 94 92 90 92 92 93 92 88 87 92 98 90 85 64 58 68 72 71 77 75 69 69 65 88 100 100 100 99 98 86 70 59 83 78 59 52 56 57 60 61 66 84 89
89 94 93 91 95 100 97 98 94 95 91 91 93 91 92 90 91 92 91 92 99 100 100 81 74 62 61 67 66 74 77 73 77 75 85 100 100 95 99 87 87 80 78 81 80 65 62 61 59 65 76 86 86 73
78 85 88 82 89 90 92 93 96 92 87 89 87 85 85 88 87 86 88 89 97 98 99 87 80 68 72 72 70 68 70 80 81 85 99 100 97 94 98 95 98 71 72 85 87 63 70 71 70 69 81 78 59 55
69 71 76 78 75 73 81 81 84 86 86 81 87 96 96 92 94 96 100 89 86 94 100 100 92 85 81 75 73 73 76 80 82 83 93 86 77 78 100 90 61 58 58 64 71 65 65 74 77 78 63 55 58 62
60 58 57 66 68 68 65 67 73 85 90 90 90 96 98 97 96 100 96 90 82 87 99 99 93 96 81 81 81 79 84 86 86 90 96 89 89 92 100 96 67 67 64 64 62 66 78 76 60 51 60 58 51 55
61 62 69 77 87 87 78 70 67 65 72 84 90 93 99 100 100 100 100 98 90 100 100 100 99 90 86 94 89 90 88 92 94 97 100 99 94 99 100 78 69 63 59 57 58 57 56 57 54 51 50 52 54 62
65 68 75 82 88 88 85 85 80 75 74 76 88 100 100 100 100 99 99 100 100 100 97 100 100 99 95 100 98 96 96 100 96 100 99 96 100 98 95 76 63 56 58 52 54 52 53 61 62 52 52 51 56 65
64 69 78 98 85 81 88 96 88 90 98 100 100 99 99 99 99 99 100 100 100 100 100 99 100 100 89 98 99 95 100 100 99 91 94 100 92 66 61 57 59 51 48 55 59 52 50 47 44 42 48 55 57 64
62 72 83 84 83 83 94 99 100 99 100 99 93 98 100 100 99 99 99 99 100 99 100 99 99 100 99 99 100 100 100 100 99 90 97 98 95 64 46 53 57 53 64 56 49 49 37 33 37 39 44 54 64 66
63 75 87 88 84 85 88 98 100 99 99 90 87 99 100 99 99 99 98 99 98 97 100 98 93 100 100 100 99 100 100 100 90 80 94 86 82 41 48 46 47 49 42 43 46 43 32 43 42 56 66 68 73 76
65 76 87 91 89 87 88 96 99 92 99 94 71 91 93 98 100 99 98 99 99 98 100 99 99 94 97 90 99 96 100 95 94 98 81 88 55 51 49 48 51 55 55 54 52 45 57 55 40 52 69 71 87 88
94 90 94 98 90 85 85 98 96 97 91 59 80 100 94 92 93 94 98 98 100 100 100 97 99 99 92 90 90 94 92 92 98 90 89 88 59 57 60 55 52 49 46 51 58 67 60 45 50 65 81 89 96 96
96 94 98 97 100 92 92 100 100 92 67 54 79 93 98 90 94 97 99 98 100 98 92 84 84 81 97 96 96 92 90 82 91 87 93 57 56 56 55 54 53 52 52 57 59 53 45 55 66 80 78 75 88 97
99 100 100 98 98 98 100 100 98 88 49 60 93 96 86 90 100 99 93 93 97 80 74 79 87 91 89 95 97 94 92 86 84 81 60 56 56 54 52 52 51 48 51 54 49 44 58 69 75 87 93 93 99 100
93 90 90 96 100 100 97 99 95 78 52 70 94 88 89 89 93 95 91 95 99 62 92 82 86 82 76 93 94 86 87 85 62 55 52 49 49 50 54 54 52 53 53 52 49 53 66 73 82 93 100 99 100 100
96 96 97 98 99 99 98 94 78 58 88 88 84 75 75 79 81 84 96 98 98 83 69 80 59 82 82 80 80 72 44 43 42 45 40 42 56 58 55 58 60 60 61 62 63 64 68 76 96 100 99 99 100 99
98 98 100 99 96 95 85 88 84 84 83 80 79 82 81 84 78 75 83 85 92 88 74 71 87 94 79 52 46 41 42 49 59 60 55 53 61 67 68 69 68 68 70 72 76 77 78 87 95 98 100 99 96 96
91 96 100 99 97 81 87 88 92 94 88 83 74 75 77 76 71 78 86 96 96 97 92 97 92 59 55 49 50 57 57 54 56 65 68 69 72 73 66 68 72 76 80 82 86 88 89 92 91 98 98 97 97 97
97 99 100 96 95 92 95 84 84 76 74 70 67 75 74 73 83 85 89 100 98 86 83 66 54 49 51 52 52 54 56 58 63 69 71 71 58 58 70 78 84 88 94 96 94 95 100 97 95 98 97 97 97 95
92 97 99 99 95 86 82 86 79 82 81 70 68 69 76 78 78 84 89 99 93 77 69 60 58 58 61 64 67 68 68 67 62 58 56 57 70 73 84 85 95 93 90 90 92 97 97 97 99 98 96 92 88 88
88 94 86 86 90 98 81 83 88 81 90 78 80 78 76 74 66 66 84 78 71 52 54 61 61 62 67 64 63 62 59 58 60 60 62 69 69 78 83 86 99 99 96 97 100 99 99 100 100 98 96 96 90 71
88 87 81 81 82 90 89 91 84 82 72 76 90 84 79 66 64 70 94 62 57 55 58 60 61 61 61 62 64 65 62 63 64 66 62 65 74 75 71 87 94 99 100 99 98 99 98 100 98 94 90 91 78 87
96 94 99 98 94 86 97 96 86 84 88 88 85 84 74 53 87 91 86 52 49 50 51 53 55 60 66 61 50 46 49 58 64 66 63 77 80 69 72 95 99 100 100 99 99 98 96 96 96 90 71 71 79 100
97 92 97 85 90 91 89 89 91 88 89 83 79 57 56 81 86 87 77 41 38 41 44 48 56 60 58 52 58 60 62 68 72 77 77 81 95 100 97 100 100 100 96 99 98 93 89 87 83 80 85 85 100 99
96 97 93 77 76 76 74 62 56 71 85 86 89 84 85 94 92 71 38 36 42 50 54 55 56 58 60 66 71 68 72 81 82 79 79 87 88 91 100 100 100 96 94 98 99 86 76 80 93 96 98 100 100 100
84 76 94 84 75 70 87 83 88 87 86 57 54 77 78 79 78 39 39 46 54 55 57 62 67 68 69 72 72 79 81 83 89 98 96 95 100 100 100 100 100 99 96 97 99 92 92 95 97 99 100 100 98 100
97 74 68 81 81 72 71 81 78 63 54 49 75 81 60 51 50 51 52 54 58 62 62 62 67 81 86 88 93 93 97 100 100 98 94 94 88 90 94 96 94 92 96 98 98 98 98 97 98 97 99 100 100 100
87 72 75 69 88 88 63 57 52 50 53 57 59 65 76 71 60 60 66 71 80 84 86 97 100 100 100 100 100 100 100 99 99 100 100 94 93 98 100 100 100 98 97 96 96 96 96 96 97 97 97 97 97 98
57 60 74 73 76 66 61 57 62 64 66 68 73 85 84 79 74 87 93 93 92 93 99 100 100 100 98 99 100 100 96 97 96 97 96 98 100 100 96 94 95 94 95 96 95 95 96 96 96 96 96 96 96 95
74 74 77 82 74 68 66 68 68 75 78 82 91 93 98 98 96 96 94 97 94 94 98 100 100 99 98 98 98 98 98 97 97 98 98 97 98 97 96 96 97 96 96 95 95 95 95 95 96 96 95 95 95 95
77 77 80 86 95 89 69 66 74 78 77 83 82 88 90 92 90 97 100 97 95 96 99 98 96 97 97 96 97 98 96 97 97 97 97 97 98 98 97 97 97 96 96 97 96 96 95 95 95 96 96 96 96 96

GFSWCAN_850_rhum_012.txt.gz
RH
100 100 96 100 99 95 95 97 94 88 88 88 88 86 80 74 71 71 71 74 71 72 68 73 70 66 66 66 90 67 72 79 98 100 99 95 94 87 90 70 76 72 89 95 98 99 93 56 55 69 61 61 63 67
98 100 100 98 96 97 96 94 94 95 90 90 90 91 89 86 84 80 80 79 80 82 80 75 72 67 73 80 72 73 68 66 72 98 100 98 100 99 92 86 63 81 71 80 79 80 54 50 53 56 61 63 73 92
96 98 100 100 93 90 97 94 88 93 93 90 92 94 92 90 92 89 87 85 85 86 80 76 62 59 70 74 82 85 77 70 75 65 82 100 100 100 97 98 93 72 60 88 77 58 55 54 57 60 64 76 92 87
98 100 100 100 100 97 95 94 91 87 88 87 91 93 95 94 96 94 93 93 96 96 99 72 65 64 55 67 66 72 75 76 76 76 84 100 100 95 100 91 93 83 86 86 82 72 69 64 61 70 82 91 79 75
94 96 98 99 100 100 100 94 90 85 86 90 96 97 99 99 92 100 100 100 97 96 98 86 74 64 57 62 61 69 74 77 76 82 99 100 98 98 100 97 98 74 73 92 88 64 68 70 79 86 90 82 89 86
81 80 92 93 89 93 100 100 99 98 96 96 92 91 93 95 94 99 100 87 85 92 100 100 89 81 79 77 74 72 61 77 88 87 94 85 74 76 100 98 61 56 62 67 74 83 75 79 83 87 96 89 67 55
72 69 67 74 81 85 83 89 95 99 96 94 92 91 98 100 100 99 96 82 74 95 100 100 96 93 90 89 81 81 78 78 89 93 95 86 86 92 100 95 67 66 65 69 70 73 80 88 76 80 90 70 58 52
78 79 76 68 60 64 65 67 67 71 80 88 92 100 100 100 100 100 100 93 87 100 98 100 99 90 88 91 90 93 92 91 93 97 99 98 90 96 99 66 69 66 67 67 72 72 72 73 71 58 56 44 49 56
81 82 81 75 75 80 80 76 67 65 70 85 100 100 100 100 100 98 99 100 100 100 96 100 100 99 94 95 96 95 98 100 96 100 99 97 100 99 92 82 69 66 66 59 58 63 66 53 33 30 30 31 52 59
82 86 85 85 78 72 79 83 81 80 92 100 100 98 98 99 99 99 100 100 100 100 100 99 99 100 93 99 100 98 99 100 99 97 96 100 88 68 64 64 67 61 56 59 63 84 83 44 38 25 32 40 47 52
74 84 94 84 77 83 84 88 96 97 100 99 97 97 100 100 100 100 100 99 100 99 100 99 100 100 100 99 100 100 100 100 99 89 95 98 95 78 59 57 60 63 67 72 76 64 46 39 41 36 32 37 56 64
70 81 88 85 79 80 89 100 99 98 92 87 85 98 99 99 99 99 99 100 99 94 100 98 93 100 100 99 99 100 98 99 97 84 98 82 84 63 59 62 62 69 64 57 57 64 57 49 52 42 56 69 77 73
65 81 91 87 83 83 94 98 92 86 88 90 86 96 94 100 98 98 96 98 97 99 100 100 98 98 100 95 100 98 100 99 95 96 76 86 68 63 66 62 58 53 50 45 40 47 54 60 52 50 63 63 78 79
63 70 90 93 87 86 99 94 85 86 80 53 63 96 90 97 93 96 98 96 100 99 100 100 99 98 94 91 86 94 91 95 99 98 94 88 63 58 54 47 37 42 48 46 41 50 54 49 46 36 50 66 86 90
89 99 96 96 88 82 96 97 86 84 69 43 61 89 98 97 99 100 96 99 100 99 84 81 88 84 100 95 96 93 98 92 88 90 92 61 55 48 45 46 49 52 46 50 53 55 55 54 52 56 59 74 90 100
98 98 94 97 97 88 99 98 91 83 66 49 81 98 96 95 98 97 94 94 96 83 78 76 92 93 92 94 98 100 97 94 86 87 59 55 54 55 58 61 59 46 47 54 57 57 62 64 67 69 71 81 100 93
97 98 99 100 100 99 99 95 96 82 60 67 87 95 88 92 85 98 87 89 89 69 90 90 94 77 79 96 100 92 91 87 62 54 55 61 64 59 50 45 50 61 61 60 58 61 67 72 77 79 82 83 94 88
95 98 98 97 98 98 99 95 85 68 67 77 90 73 88 81 82 84 84 84 90 78 76 79 67 84 90 88 89 80 50 43 39 52 52 55 52 48 56 65 62 59 62 68 74 78 82 84 88 79 80 86 97 90
88 94 93 86 99 93 89 94 82 72 70 83 80 75 71 69 71 73 82 94 92 91 77 71 85 93 90 61 46 33 37 55 61 52 45 49 59 65 67 64 58 58 70 82 88 92 95 98 92 89 96 99 99 96
99 100 100 99 94 84 83 92 91 85 84 81 76 79 79 73 69 76 88 91 95 87 92 98 96 60 50 35 45 52 52 50 52 60 64 64 66 64 59 58 61 69 74 80 84 85 86 93 90 99 100 99 98 96
100 100 99 95 84 82 84 81 86 81 75 75 72 79 73 76 80 81 92 94 91 96 93 70 67 58 51 48 46 49 55 58 64 69 72 70 60 60 61 62 67 74 84 83 96 98 98 99 100 100 100 100 98 97
100 100 100 95 87 82 76 73 73 77 71 75 70 76 77 79 82 84 86 100 87 80 74 66 53 49 48 48 47 54 61 66 67 66 64 63 64 66 65 67 80 84 75 87 95 96 95 99 98 100 100 98 98 96
95 100 92 88 79 80 75 86 83 85 92 81 80 82 81 79 68 71 95 90 77 51 44 49 48 50 56 56 60 63 63 64 65 66 65 66 66 66 65 69 73 72 80 88 98 99 98 99 97 100 100 93 92 95
94 91 72 72 82 90 96 91 92 86 80 86 97 97 89 73 68 86 94 63 48 47 51 52 53 56 57 58 60 61 64 61 61 63 62 68 66 67 76 74 73 88 98 98 100 99 100 99 100 99 97 96 97 99
80 89 90 95 100 96 99 97 80 98 98 97 92 92 70 59 90 97 91 51 45 40 39 42 47 52 58 57 60 55 53 62 62 69 68 71 85 87 69 62 92 99 91 99 97 98 100 98 97 97 97 90 82 92
100 94 97 88 98 94 95 100 100 98 98 94 92 63 64 82 92 86 80 42 40 38 37 45 52 56 58 59 60 61 61 64 68 75 80 95 100 100 94 100 92 89 94 99 100 99 99 98 94 95 88 85 94 96
98 100 96 85 83 78 87 79 72 84 94 88 90 86 88 93 95 74 40 36 36 39 50 56 56 58 60 62 64 65 69 75 78 87 90 98 100 94 100 100 98 97 100 99 100 100 100 100 90 82 91 97 97 98
87 84 94 86 86 82 81 92 93 93 88 64 74 87 86 89 81 41 39 44 52 58 59 64 65 62 64 71 75 81 89 96 98 99 100 98 90 95 98 98 98 100 98 93 97 97 99 98 97 96 98 97 97 97
98 89 82 88 80 76 94 90 79 62 51 53 78 85 62 49 47 48 50 52 56 59 64 65 68 81 91 98 100 99 100 99 99 100 100 100 100 97 93 92 91 93 100 100 98 97 96 96 96 97 97 97 97 97
83 71 86 86 94 95 70 60 54 48 50 52 53 57 60 56 53 55 62 67 77 82 87 87 99 100 100 96 93 92 95 93 93 97 97 99 98 100 100 99 89 87 88 89 93 92 91 90 91 95 96 97 97 96
65 75 77 72 74 59 55 54 56 57 58 60 59 69 74 64 59 76 84 86 88 94 98 100 100 100 99 94 96 97 97 96 96 97 96 96 96 98 97 96 95 94 93 91 89 88 88 90 95 96 96 96 96 96
77 75 74 89 76 70 71 74 76 77 75 74 74 67 72 93 97 94 89 98 100 98 97 98 98 97 97 97 96 96 95 96 95 96 96 97 97 97 97 98 98 96 93 90 89 88 88 90 91 92 93 93 93 94
72 63 63 81 85 89 70 67 71 75 71 71 69 68 76 88 85 98 99 97 97 96 96 96 96 96 96 95 95 96 96 96 96 96 96 96 96 96 96 96 96 96 97 98 100 98 96 92 91 93 98 98 98 97

GFSWCAN_850_rhum_015.txt.gz
RH
100 100 99 98 95 94 96 91 88 90 86 82 78 74 70 67 64 60 60 60 60 59 63 66 66 68 70 66 88 72 76 82 99 99 98 95 94 88 90 71 77 75 86 95 97 100 93 52 57 72 65 51 60 70
100 100 100 100 96 91 96 96 95 91 93 90 86 83 78 75 77 76 74 72 70 67 68 64 65 68 66 70 68 69 69 66 73 99 98 99 98 98 90 93 66 80 70 81 79 80 54 51 53 52 60 69 75 92
95 100 100 100 98 93 91 93 93 97 95 93 92 90 90 88 85 84 84 82 78 77 72 70 65 65 71 71 74 78 76 72 70 68 81 100 100 99 98 94 82 80 69 88 77 63 55 55 63 62 70 77 90 94
98 100 99 100 98 94 94 93 93 90 93 96 94 92 93 95 92 92 93 93 90 89 93 69 63 64 60 62 65 68 66 74 80 85 83 100 100 92 99 86 96 85 85 88 84 72 72 66 71 83 82 96 90 91
99 100 100 100 100 99 91 96 94 91 88 89 88 92 94 98 99 98 98 98 97 90 96 77 68 61 67 66 60 72 72 74 85 98 100 100 95 97 100 97 100 83 84 88 90 65 70 70 92 94 99 94 86 74
98 100 100 100 100 100 97 98 95 97 95 92 91 88 90 100 100 100 100 82 76 90 100 100 82 75 65 71 72 83 81 82 87 85 96 89 74 78 100 99 63 59 62 66 75 68 73 95 98 100 93 80 58 61
92 99 100 98 98 99 100 100 100 95 96 95 94 96 100 100 100 99 90 80 69 95 99 99 99 93 93 86 86 88 82 86 94 93 99 79 82 87 100 95 67 68 67 69 72 80 87 98 100 89 53 62 53 45
73 81 89 87 94 96 92 95 100 98 100 100 100 100 100 100 100 100 97 88 78 98 100 100 99 92 90 92 93 93 95 96 97 94 98 100 95 95 100 75 69 69 70 68 75 81 90 75 57 40 30 22 20 20
75 75 90 90 85 75 72 74 84 94 100 100 100 100 100 100 100 97 100 100 100 100 99 100 100 100 97 99 95 94 96 100 97 100 99 100 100 99 93 80 71 72 74 74 71 68 61 67 55 46 46 34 28 27
78 82 94 96 91 85 78 68 64 68 80 95 100 99 100 100 99 93 99 100 100 100 100 99 100 100 93 97 100 97 99 100 99 99 98 100 98 79 67 66 66 64 70 68 71 86 90 60 61 52 45 40 47 57
79 85 91 83 81 85 89 93 85 97 100 99 96 96 100 100 99 99 99 99 100 100 100 100 100 100 100 99 100 99 100 99 99 91 100 98 98 78 68 71 70 72 78 78 79 85 75 49 39 47 52 41 48 60
77 90 90 80 87 99 100 100 100 99 95 86 79 98 99 98 99 98 99 100 99 95 99 98 98 98 100 100 99 100 99 99 97 88 98 97 85 78 84 84 75 69 61 51 49 46 37 38 49 58 56 56 47 62
76 91 88 81 86 97 98 97 99 90 85 88 84 98 99 100 96 98 99 98 99 98 100 99 100 100 100 99 99 98 98 97 98 98 95 88 74 75 65 60 46 39 45 43 33 38 48 52 56 60 63 60 61 63
76 93 94 88 89 99 92 88 91 86 73 60 67 100 88 97 93 95 95 94 92 100 100 100 99 98 97 90 89 94 90 96 98 98 96 89 66 57 40 38 46 48 49 48 50 56 57 53 54 55 60 65 71 75
93 100 99 97 92 100 90 80 88 85 59 42 52 79 97 90 95 99 94 97 99 100 98 95 98 94 100 97 92 91 96 95 86 92 93 63 44 42 50 57 54 49 52 60 54 54 54 59 65 66 64 75 81 83
99 99 100 99 97 100 90 83 84 76 64 49 69 97 97 92 100 88 88 92 98 94 80 75 91 91 93 94 95 99 99 96 86 86 54 49 54 61 58 51 52 55 60 53 53 56 64 68 75 81 80 84 81 79
100 95 90 100 96 89 88 92 94 78 65 56 75 90 91 88 82 86 87 85 90 78 80 88 93 66 82 98 100 93 94 88 63 48 60 66 65 55 53 58 63 62 57 54 60 63 68 72 80 86 93 92 86 89
100 90 98 100 99 98 98 97 82 78 67 68 85 78 87 84 84 99 92 84 91 77 75 83 70 89 94 93 92 83 57 53 49 57 57 50 48 53 62 65 60 59 59 61 67 68 70 76 93 92 93 97 100 97
85 96 94 100 98 95 94 90 87 64 62 77 76 70 73 78 80 78 78 83 85 89 82 76 90 94 90 65 46 33 36 46 54 50 48 50 60 64 66 61 62 63 65 67 71 73 73 80 90 90 98 99 99 100
93 99 100 94 89 79 81 92 87 76 76 76 78 78 78 75 73 74 82 87 88 98 96 98 93 60 51 41 45 48 51 53 54 59 60 61 64 65 64 65 66 68 68 66 65 62 70 94 96 88 92 94 99 100
96 99 99 99 92 78 77 82 88 81 80 76 79 79 76 78 80 80 81 96 97 98 97 73 66 62 56 53 53 53 51 51 58 66 68 70 68 71 67 66 68 67 66 64 61 63 88 92 97 92 95 95 99 98
99 100 98 97 85 80 76 73 72 75 71 76 74 78 82 82 83 78 93 100 94 72 70 63 51 45 45 45 44 50 55 58 60 63 64 66 68 66 64 67 71 70 70 66 70 88 96 98 94 95 99 99 97 98
98 98 92 81 70 74 83 85 82 86 91 83 84 84 84 81 73 78 99 99 77 40 35 43 41 46 53 52 56 57 55 59 62 67 67 67 67 64 63 64 79 91 88 58 93 100 100 94 93 85 95 100 95 95
92 88 75 75 76 89 97 88 93 90 89 90 98 99 92 76 81 97 98 76 39 38 46 47 50 54 54 54 53 52 56 63 65 63 62 62 64 66 71 78 88 98 94 81 100 100 99 96 98 92 95 98 97 97
74 88 84 94 100 94 96 100 98 100 98 98 98 97 73 71 94 100 96 55 41 39 38 36 40 42 46 47 50 55 57 55 55 56 60 66 71 75 78 79 76 86 86 92 99 99 100 100 96 98 98 99 98 96
99 95 92 85 95 94 91 100 100 99 99 99 97 73 73 84 92 84 77 38 37 36 36 38 39 46 52 59 60 61 61 62 67 69 68 77 89 99 99 100 100 85 98 100 99 99 97 95 96 95 99 100 99 96
100 99 100 93 85 86 93 88 89 91 100 95 90 91 93 90 93 74 39 37 39 40 41 52 60 63 65 63 65 70 77 80 85 90 94 99 100 100 100 100 100 99 95 96 100 100 100 98 97 98 98 95 90 96
89 89 94 98 98 86 83 95 94 94 89 67 79 92 83 86 82 40 39 42 46 49 53 53 53 57 64 76 86 95 96 96 99 97 93 96 100 99 100 99 97 92 87 95 100 100 100 99 97 97 97 96 94 94
99 96 92 96 87 88 90 86 79 63 54 59 83 88 62 48 47 48 49 52 56 56 59 63 66 72 84 99 98 90 94 92 92 92 97 95 93 95 97 95 93 90 87 84 87 94 95 93 92 92 92 96 96 96
86 86 93 93 96 96 81 74 68 56 58 59 59 61 61 59 57 57 58 61 65 65 66 76 84 96 99 100 98 96 93 91 88 96 98 98 96 95 100 99 92 92 91 89 87 85 85 84 84 85 87 88 92 96
81 89 91 90 85 69 60 58 61 62 64 65 64 68 70 69 71 76 77 81 84 89 96 100 100 100 98 96 96 97 98 97 98 97 96 96 97 98 100 97 93 92 93 92 90 88 86 85 84 84 87 90 93 95
82 80 80 96 76 68 62 68 73 75 76 81 83 78 76 84 88 99 97 97 100 98 98 98 98 97 97 96 96 95 96 96 96 96 96 96 96 96 96 96 96 95 94 94 95 96 96 94 91 88 89 95 96 95
84 82 78 80 76 62 49 54 60 61 52 58 56 58 76 82 95 98 98 97 98 96 95 95 95 96 96 96 97 98 97 96 96 96 96 96 96 95 94 93 91 88 87 89 94 98 98 96 94 92 95 100 99 98